User: anonymous
Location: Unspecified
(0.0000°N, 0.0000°E)
Time: 04:13:44
(UTC+02:00)
Language:

ARIANE 5 R/B - Orbit

View from above orbital plane
View from above orbital plane
View from above satellite
View from above satellite

Ground track
Ground track

The orbit data is extracted from the following two-line orbital elements,

1 28379U 04027B   14244.75959306  .00000286  00000-0  23965-2 0  6924
2 28379 007.3351 316.1641 7285185 111.5297 167.4800 02.07917262 76920
Epoch (UTC): 01 September 2014 18:13:48
Eccentricity: 0.7285185
inclination: 7.3351°
perigee height: 661 km
apogee height: 38442 km
right ascension of ascending node: 316.1641°
argument of perigee: 111.5297°
revolutions per day: 2.07917262
mean anomaly at epoch: 167.4800°
orbit number at epoch: 7692

The dashed part of the orbit path shows where the satellite is in the earth's shadow,  

DLR